Home > Time Zones > World Clock > Weather > U.S.A. > Erie > Past weeks

Flag for U.S.A. Weather past 2 weeks in Erie, Pennsylvania, U.S.A.

Now
73 °F

Overcast.


Feels Like: 71 °F
Forecast: 68 / 76 °F
Wind: 10 mph from West

Location: Erie International Airport

Current Time: Jul 23, 2014 at 10:47:05 AM

Latest Report: Jul 23, 2014 at 9:51 AM


Visibility: 7 mi

Pressure: 29.91 "Hg

Humidity: 88%

Dew point: 69 °F

Location of ErieLocation

Historic Weather in Erie — Graph

°F

Erie temperature yesterday

Maximum temperature yesterday: 83 °F (at 11:51 AM)
Minimum temperature yesterday: 66 °F (at 5:51 AM)
Average temperature yesterday: 74 °F

Past Weeks' High & Low Weather Summary

 TemperatureHumidityPressure
High83 °F (Jul 22, 11:51 AM)90% (Jul 19, 7:51 AM)30.25 "Hg (Jul 19, 7:51 AM)
Low53 °F (Jul 17, 5:51 AM)34% (Jul 18, 11:51 AM)29.55 "Hg (Jul 8, 1:51 PM)
Average70 °F69%30.00 "Hg
* Reported Jul 8 8:51 AM — Jul 23 8:51 AM, Erie, Weather by CustomWeather, © 2014

Note: Actual official high and low records may vary slightly from our data, if they occured in-between our weather recording intervals... More about our weather records

Advertising

Erie weather history for previous 24 hours

 ConditionsComfort  
Time TempWeatherWind HumidityBarometerVisibility
8:51 AM
Jul 23
76 °FPassing clouds.7 mph77%29.90 "Hg7 mi
7:51 AM76 °FScattered clouds.9 mph74%29.90 "Hg8 mi
6:51 AM76 °FPassing clouds.13 mph72%29.88 "Hg9 mi
5:51 AM77 °FPassing clouds.8 mph69%29.93 "Hg10 mi
4:51 AM75 °FPassing clouds.10 mph76%29.91 "Hg10 mi
3:51 AM76 °FPassing clouds.8 mph74%29.90 "Hg10 mi
1:51 AM78 °FPassing clouds.9 mph71%29.94 "Hg10 mi
12:51 AM78 °FClear.7 mph69%29.96 "Hg10 mi
11:51 PM
Jul 22
78 °FClear.8 mph69%29.95 "Hg10 mi
10:51 PM76 °FClear.8 mph74%29.95 "Hg9 mi
9:51 PM76 °FClear.5 mph72%29.96 "Hg9 mi
8:51 PM79 °FSunny.3 mph62%29.98 "Hg9 mi
7:51 PM81 °FSunny.3 mph58%29.99 "Hg8 mi
12:51 PM82 °FSunny.6 mph65%30.07 "Hg10 mi
11:51 AM83 °FSunny.6 mph61%30.09 "Hg10 mi
10:51 AM80 °FSunny.6 mph69%30.11 "Hg10 mi
Weather by CustomWeather, © 2014

See weather overviewHow to use our weather pages